User: anonymous
Location: Whispering Pines Observatory
(39.4020°N, 104.7430°W)
Time: 13:57:00
(UTC-06:00)
Language:

MOS 1 Rocket - Orbit

View from above orbital plane
View from above orbital plane
View from above satellite
View from above satellite

Ground track
Ground track

The orbit data is extracted from the following two-line orbital elements,

1 17528U 87018B   14294.14088123  .00001094  00000-0  25050-3 0  5078
2 17528 097.4497 349.1533 0155199 098.6407 319.8716 14.50100817459254
Epoch (UTC): 21 October 2014 03:22:52
Eccentricity: 0.0155199
inclination: 97.4497°
perigee height: 615 km
apogee height: 835 km
right ascension of ascending node: 349.1533°
argument of perigee: 98.6407°
revolutions per day: 14.50100817
mean anomaly at epoch: 319.8716°
orbit number at epoch: 45925

The dashed part of the orbit path shows where the satellite is in the earth's shadow,  

DLR